CW4517 Weather Reports


Display with metric or nautical units.
time (UTC)temp
F
wind
direction
speed
MPH
gust
MPH
rain 1hr
in
rain 24hr
in
rain mn
in
humidity
%
barometer
mb
20260905154539 82 37 5.0 11.0 0.00 0.00 0.00 79 1011.1
20260905154041 82 66 4.0 11.0 0.00 0.00 0.00 79 1010.9
20260905153541 82 36 4.0 8.0 0.00 0.00 0.00 80 1010.9
20260905153043 82 55 5.0 12.0 0.00 0.00 0.00 81 1010.9
20260905152537 82 28 6.0 12.0 0.00 0.00 0.00 81 1010.9
20260905152027 81 46 6.0 11.0 0.00 0.00 0.00 81 1010.9
20260905151744 82 40 6.0 12.0 0.00 0.00 0.00 81 1010.9
20260905151028 82 95 6.0 12.0 0.00 0.00 0.00 81 1010.7
20260905150527 82 70 6.0 12.0 0.00 0.00 0.00 80 1010.7
20260905150027 82 64 6.0 10.0 0.00 0.00 0.00 80 1010.7
20260905145526 83 21 4.0 10.0 0.00 0.00 0.00 80 1010.8
20260905145029 83 0 3.0 5.0 0.00 0.00 0.00 81 1010.8
20260905144528 82 42 4.0 8.0 0.00 0.00 0.00 83 1010.8
20260905144026 81 33 4.0 8.0 0.00 0.00 0.00 83 1010.4
20260905143524 81 86 3.0 7.0 0.00 0.00 0.00 83 1010.4
20260905143018 81 12 3.0 6.0 0.00 0.00 0.00 83 1010.4
20260905142513 80 47 3.0 8.0 0.00 0.00 0.00 84 1010.2
20260905142008 80 67 4.0 9.0 0.00 0.00 0.00 84 1010.2
20260905141457 80 84 3.0 9.0 0.00 0.00 0.00 84 1010.2
20260905140954 80 44 3.0 8.0 0.00 0.00 0.00 84 1010.2
20260905140444 80 338 3.0 8.0 0.00 0.00 0.00 84 1010.2
20260905135942 80 34 3.0 6.0 0.00 0.00 0.00 85 1010.5
20260905135700 79 41 4.0 8.0 0.00 0.00 0.00 85 1010.5
20260905134926 79 39 4.0 8.0 0.00 0.00 0.00 85 1010.5
20260905134424 79 67 4.0 8.0 0.00 0.00 0.00 85 1010.8
20260905133918 79 52 3.0 8.0 0.00 0.00 0.00 86 1010.8
20260905133412 79 81 3.0 8.0 0.00 0.00 0.00 86 1010.8
20260905132908 79 50 4.0 8.0 0.00 0.00 0.00 87 1010.3
20260905132357 79 56 4.0 9.0 0.00 0.00 0.00 87 1010.3
20260905132128 78 83 4.0 9.0 0.00 0.00 0.00 87 1010.3
20260905131604 78 80 3.0 7.0 0.00 0.00 0.00 87 1010.2
20260905130842 78 15 3.0 7.0 0.00 0.00 0.00 87 1010.2
20260905130601 78 50 3.0 7.0 0.00 0.00 0.00 88 1010.2
20260905125832 78 49 3.0 7.0 0.00 0.00 0.00 88 1009.9
20260905125550 79 34 3.0 6.0 0.00 0.00 0.00 89 1009.9
20260905124815 79 49 2.0 6.0 0.00 0.00 0.00 90 1009.9
20260905124314 79 11 2.0 4.0 0.00 0.00 0.00 90 1009.7
20260905123807 78 46 1.0 4.0 0.00 0.00 0.00 90 1009.7
20260905123300 78 22 1.0 4.0 0.00 0.00 0.00 90 1009.7
20260905122755 78 355 1.0 4.0 0.00 0.00 0.00 90 1009.4
20260905122243 78 355 1.0 3.0 0.00 0.00 0.00 90 1009.4
20260905121742 78 320 1.0 3.0 0.00 0.00 0.00 90 1009.4
20260905121236 78 340 0.0 3.0 0.00 0.00 0.00 91 1009.3
20260905120731 78 319 0.0 2.0 0.00 0.00 0.00 91 1009.3
20260905120225 78 284 0.0 2.0 0.00 0.00 0.00 91 1009.3
20260905115935 78 33 0.0 2.0 0.00 0.00 0.00 90 1009.2
20260905115436 78 38 0.0 2.0 0.00 0.00 0.00 90 1009.2
20260905114703 78 38 0.0 2.0 0.00 0.00 0.00 90 1009.2
20260905114424 78 38 1.0 3.0 0.00 0.00 0.00 90 1009.2
20260905113656 78 38 1.0 3.0 0.00 0.00 0.00 90 1009.2
20260905113148 78 273 0.0 2.0 0.00 0.00 0.00 90 1009.2
20260905112642 78 240 0.0 1.0 0.00 0.00 0.00 90 1009.1
20260905112400 78 240 1.0 3.0 0.00 0.00 0.00 90 1009.1
20260905111636 78 240 2.0 4.0 0.00 0.00 0.00 90 1009.1
20260905111410 78 217 2.0 4.0 0.00 0.00 0.00 90 1009.0
20260905110857 78 249 1.0 3.0 0.00 0.00 0.00 90 1009.0
20260905110135 78 238 1.0 3.0 0.00 0.00 0.00 90 1009.0
20260905105904 78 238 1.0 2.0 0.00 0.00 0.00 90 1009.1
20260905105135 78 238 1.0 4.0 0.00 0.00 0.00 90 1009.1
20260905104858 78 238 1.0 4.0 0.00 0.00 0.00 90 1009.1
20260905104137 78 238 1.0 3.0 0.00 0.00 0.00 90 1009.2
20260905104110 78 238 1.0 3.0 0.00 0.00 0.00 90 1009.2
20260905103119 78 240 1.0 2.0 0.00 0.00 0.00 90 1009.2
20260905102609 78 240 0.0 1.0 0.00 0.00 0.00 90 1009.2
20260905102105 78 240 0.0 0.0 0.00 0.00 0.00 90 1009.2
20260905101558 78 240 0.0 0.0 0.00 0.00 0.00 90 1009.2
20260905101052 78 240 0.0 0.0 0.00 0.00 0.00 90 1009.2
20260905100542 78 240 0.0 0.0 0.00 0.00 0.00 90 1009.2
20260905100039 78 240 0.0 1.0 0.00 0.00 0.00 90 1009.2
20260905095534 78 240 0.0 1.0 0.00 0.00 0.00 89 1009.1
20260905095250 78 240 0.0 2.0 0.00 0.00 0.00 89 1009.1
20260905094522 78 240 1.0 2.0 0.00 0.00 0.00 89 1009.1
20260905094015 78 240 1.0 2.0 0.00 0.00 0.00 89 1009.1
20260905093729 78 240 1.0 2.0 0.00 0.00 0.00 89 1009.1
20260905093000 79 240 1.0 2.0 0.00 0.00 0.00 89 1009.1
20260905092457 79 240 2.0 3.0 0.00 0.00 0.00 89 1009.1
20260905091952 79 240 2.0 3.0 0.00 0.00 0.00 89 1009.1
20260905091710 79 233 1.0 2.0 0.00 0.00 0.00 89 1009.1
20260905090941 79 233 1.0 2.0 0.00 0.00 0.00 89 1009.1
20260905090429 79 233 0.0 2.0 0.00 0.00 0.00 89 1009.1
20260905090156 79 233 1.0 2.0 0.00 0.00 0.00 89 1009.1
20260905085423 79 233 1.0 3.0 0.00 0.00 0.00 89 1009.1
20260905084915 79 233 1.0 3.0 0.00 0.00 0.00 89 1009.1
20260905084636 79 230 0.0 1.0 0.00 0.00 0.00 89 1009.1
20260905083859 79 248 0.0 0.0 0.00 0.00 0.00 89 1009.1
20260905083357 79 248 0.0 0.0 0.00 0.00 0.00 89 1009.1
20260905083111 79 319 0.0 0.0 0.00 0.00 0.00 89 1009.2
20260905082345 79 319 0.0 0.0 0.00 0.00 0.00 89 1009.2
20260905081840 79 321 0.0 0.0 0.00 0.00 0.00 89 1009.2
20260905081333 79 275 0.0 0.0 0.00 0.00 0.00 89 1009.2
20260905080828 79 275 0.0 0.0 0.00 0.00 0.00 89 1009.2
20260905080542 79 257 0.0 0.0 0.00 0.00 0.00 89 1009.2
20260905075815 79 304 0.0 0.0 0.00 0.00 0.00 89 1009.1
20260905075311 79 233 0.0 0.0 0.00 0.00 0.00 89 1009.1
20260905074803 79 233 0.0 0.0 0.00 0.00 0.00 88 1009.1
20260905074258 79 233 0.0 0.0 0.00 0.00 0.00 88 1009.0
20260905073748 79 233 0.0 0.0 0.00 0.00 0.00 88 1009.0
20260905073245 79 233 0.0 0.0 0.00 0.00 0.00 88 1009.0
20260905072740 79 233 0.0 0.0 0.00 0.00 0.00 88 1009.0
20260905072233 79 233 0.0 0.0 0.00 0.00 0.00 88 1009.0
20260905071728 79 233 0.0 0.0 0.00 0.00 0.00 88 1009.0
20260905071220 80 233 0.0 0.0 0.00 0.00 0.00 88 1009.2
20260905070935 80 233 0.0 0.0 0.00 0.00 0.00 88 1009.2
20260905070208 80 233 0.0 0.0 0.00 0.00 0.00 87 1009.2
20260905065700 80 233 0.0 0.0 0.00 0.00 0.00 87 1009.2
20260905065146 80 233 0.0 2.0 0.00 0.00 0.00 87 1009.2
20260905064642 80 233 0.0 2.0 0.00 0.00 0.00 87 1009.2
20260905064140 80 233 1.0 3.0 0.00 0.00 0.00 87 1009.2
20260905063644 80 233 2.0 4.0 0.00 0.00 0.00 87 1009.2
20260905063141 80 229 2.0 4.0 0.00 0.00 0.00 87 1009.2
20260905062642 80 223 2.0 4.0 0.00 0.00 0.00 87 1009.2
20260905062138 80 219 1.0 3.0 0.00 0.00 0.00 87 1009.2
20260905061639 80 219 1.0 3.0 0.00 0.00 0.00 87 1009.2
20260905061138 80 219 2.0 3.0 0.00 0.00 0.00 87 1009.3
20260905060642 80 234 2.0 3.0 0.00 0.00 0.00 87 1009.3
20260905060140 80 231 2.0 3.0 0.00 0.00 0.00 87 1009.3
20260905055634 80 229 2.0 4.0 0.00 0.00 0.00 87 1009.6
20260905055607 80 218 2.0 4.0 0.00 0.00 0.00 87 1009.6
20260905054622 80 241 1.0 4.0 0.00 0.00 0.00 86 1009.6
20260905054115 80 221 1.0 3.0 0.00 0.00 0.00 86 1009.7
20260905053610 80 221 1.0 4.0 0.00 0.00 0.00 86 1009.7
20260905053103 80 217 1.0 4.0 0.00 0.00 0.00 85 1009.7
20260905052557 80 221 0.0 3.0 0.00 0.00 0.00 85 1009.6
20260905052309 80 221 2.0 4.0 0.00 0.00 0.00 85 1009.6
20260905052033 81 228 2.0 4.0 0.00 0.00 0.00 85 1009.6
20260905051040 81 215 3.0 5.0 0.00 0.00 0.00 85 1009.2
20260905050534 81 236 3.0 6.0 0.00 0.00 0.00 84 1009.2
20260905050024 81 226 2.0 6.0 0.00 0.00 0.00 84 1009.2
20260905045523 81 211 1.0 5.0 0.00 0.00 0.00 84 1009.5
20260905045017 81 232 1.0 3.0 0.00 0.00 0.00 83 1009.5
20260905044513 82 232 1.0 3.0 0.00 0.00 0.00 83 1009.5
20260905044006 82 231 1.0 3.0 0.00 0.00 0.00 82 1009.7
20260905043456 82 239 1.0 2.0 0.00 0.00 0.00 82 1009.7
20260905043212 83 240 2.0 5.0 0.00 0.00 0.00 81 1009.6
20260905042448 83 240 2.0 5.0 0.00 0.00 0.00 81 1009.6
20260905041943 83 229 2.0 4.0 0.00 0.00 0.00 81 1009.6
20260905041436 83 226 2.0 4.0 0.00 0.00 0.00 80 1009.7
20260905040925 83 224 2.0 4.0 0.00 0.00 0.00 80 1009.7
20260905040423 83 231 2.0 4.0 0.00 0.00 0.00 80 1009.7
20260905035918 83 225 1.0 4.0 0.00 0.00 0.00 80 1009.8
20260905035411 84 231 0.0 4.0 0.00 0.00 0.00 79 1009.8
20260905034906 84 228 0.0 0.0 0.00 0.00 0.00 79 1009.8
20260905034352 84 228 0.0 0.0 0.00 0.00 0.00 78 1010.1
20260905033847 84 228 0.0 0.0 0.00 0.00 0.00 78 1010.1
20260905033348 84 228 0.0 0.0 0.00 0.00 0.00 78 1010.1
20260905032842 84 228 0.0 0.0 0.00 0.00 0.00 78 1010.2
20260905032552 84 228 0.0 0.0 0.00 0.00 0.00 79 1010.2
20260905031830 84 228 0.0 0.0 0.00 0.00 0.00 79 1010.2
20260905031543 84 228 0.0 0.0 0.00 0.00 0.00 80 1010.1
20260905030809 84 228 0.0 0.0 0.00 0.00 0.00 80 1010.1
20260905030311 84 228 0.0 0.0 0.00 0.00 0.00 80 1010.1
20260905025806 84 228 0.0 0.0 0.00 0.00 0.00 80 1009.8
20260905025258 84 228 0.0 0.0 0.00 0.00 0.00 80 1009.8
20260905024754 84 227 0.0 0.0 0.00 0.00 0.00 80 1009.8
20260905024241 83 227 0.0 0.0 0.00 0.00 0.00 80 1009.8
20260905023740 83 227 0.0 0.0 0.00 0.00 0.00 80 1009.8
20260905023236 84 227 0.0 0.0 0.00 0.00 0.00 80 1009.8
20260905022953 84 227 0.0 0.0 0.00 0.00 0.00 80 1009.7
20260905022223 84 227 0.0 0.0 0.00 0.00 0.00 79 1009.7
20260905021938 84 227 0.0 0.0 0.00 0.00 0.00 79 1009.7
20260905021210 84 227 0.0 0.0 0.00 0.00 0.00 79 1009.7
20260905020922 84 227 0.0 0.0 0.00 0.00 0.00 78 1009.7
20260905020159 85 227 0.0 0.0 0.00 0.00 0.00 79 1009.7
20260905015654 85 227 0.0 0.0 0.00 0.00 0.00 78 1009.7
20260905015146 85 227 0.0 0.0 0.00 0.00 0.00 78 1009.7
20260905014854 85 227 0.0 0.0 0.00 0.00 0.00 79 1009.7
20260905014124 85 227 0.0 0.0 0.00 0.00 0.00 78 1009.3
20260905013627 85 227 0.0 0.0 0.00 0.00 0.00 78 1009.3
20260905013124 85 227 0.0 0.0 0.00 0.00 0.00 78 1009.3
20260905012625 85 227 0.0 0.0 0.00 0.00 0.00 78 1009.2
20260905012123 85 227 0.0 0.0 0.00 0.00 0.00 78 1009.2
20260905011850 85 227 0.0 0.0 0.00 0.00 0.00 78 1009.2
20260905011620 85 227 0.0 0.0 0.00 0.00 0.00 77 1008.7
20260905010625 86 227 0.0 0.0 0.00 0.00 0.00 77 1008.7
20260905010123 86 227 0.0 0.0 0.00 0.00 0.00 77 1008.7
20260905005619 86 227 0.0 0.0 0.00 0.00 0.00 77 1008.7
20260905005111 86 227 0.0 0.0 0.00 0.00 0.00 76 1008.7
20260905004606 87 227 0.0 0.0 0.00 0.00 0.00 76 1008.7
20260905004100 87 227 0.0 0.0 0.00 0.00 0.00 75 1009.0
20260905003553 87 226 0.0 0.0 0.00 0.00 0.00 75 1009.0
20260905003308 87 229 0.0 0.0 0.00 0.00 0.00 74 1009.0
20260905002537 88 217 0.0 0.0 0.00 0.00 0.00 73 1009.0
20260905002035 88 229 0.0 0.0 0.00 0.00 0.00 73 1009.0
20260905001757 89 229 0.0 0.0 0.00 0.00 0.00 73 1009.0
20260905001024 89 224 0.0 0.0 0.00 0.00 0.00 72 1009.0
20260905000517 89 225 1.0 4.0 0.00 0.00 0.00 72 1009.0
20260905000011 89 231 2.0 5.0 0.00 0.00 0.00 71 1009.0
20260904235506 89 231 2.0 5.0 0.00 0.00 0.00 71 1009.1
20260904235000 90 244 2.0 7.0 0.00 0.00 0.00 71 1009.1
20260904234455 90 232 1.0 7.0 0.00 0.00 0.00 70 1009.1
20260904233949 90 240 0.0 6.0 0.00 0.00 0.00 70 1009.1
20260904233700 90 243 2.0 8.0 0.00 0.00 0.00 70 1009.1
20260904232937 91 245 3.0 8.0 0.00 0.00 0.00 69 1009.1
20260904232425 91 213 4.0 8.0 0.00 0.00 0.00 69 1009.1
20260904232153 91 237 4.0 8.0 0.00 0.00 0.00 69 1009.1
20260904231417 91 262 2.0 8.0 0.00 0.00 0.00 68 1009.2
20260904230911 91 235 2.0 6.0 0.00 0.00 0.00 69 1009.2
20260904230630 91 256 3.0 7.0 0.00 0.00 0.00 69 1009.2
20260904225857 91 188 4.0 8.0 0.00 0.00 0.00 69 1009.1
20260904225355 91 254 4.0 8.0 0.00 0.00 0.00 69 1009.1
20260904224850 91 225 4.0 8.0 0.00 0.00 0.00 68 1009.1
20260904224341 91 238 4.0 9.0 0.00 0.00 0.00 68 1009.1
20260904223836 92 231 4.0 9.0 0.00 0.00 0.00 67 1009.1
20260904223329 92 244 5.0 9.0 0.00 0.00 0.00 68 1009.1
20260904222824 92 238 4.0 9.0 0.00 0.00 0.00 67 1008.9
20260904222325 92 222 4.0 10.0 0.00 0.00 0.00 67 1008.9
20260904221825 92 223 4.0 10.0 0.00 0.00 0.00 68 1008.9
20260904221324 91 238 4.0 10.0 0.00 0.00 0.00 67 1009.0
20260904220825 92 215 4.0 10.0 0.00 0.00 0.00 66 1009.0
20260904220326 92 207 4.0 9.0 0.00 0.00 0.00 65 1009.0
20260904215824 92 224 6.0 13.0 0.00 0.00 0.00 65 1008.8
20260904215325 92 233 6.0 13.0 0.00 0.00 0.00 64 1008.8
20260904215052 92 257 5.0 12.0 0.00 0.00 0.00 64 1008.8
20260904214325 92 231 4.0 12.0 0.00 0.00 0.00 64 1008.8
20260904213825 92 182 4.0 10.0 0.00 0.00 0.00 65 1008.8
20260904213328 93 220 4.0 10.0 0.00 0.00 0.00 64 1008.8
20260904213053 93 235 4.0 8.0 0.00 0.00 0.00 64 1009.0
20260904212325 93 196 4.0 9.0 0.00 0.00 0.00 64 1009.0
20260904211825 92 214 4.0 11.0 0.00 0.00 0.00 65 1009.0
20260904211326 93 254 3.0 11.0 0.00 0.00 0.00 64 1009.2
20260904210824 92 138 4.0 11.0 0.00 0.00 0.00 65 1009.2
20260904210806 92 199 4.0 11.0 0.00 0.00 0.00 65 1009.2
20260904205825 92 196 4.0 10.0 0.00 0.00 0.00 65 1009.5
20260904205324 92 229 4.0 10.0 0.00 0.00 0.00 65 1009.5
20260904204824 92 218 4.0 10.0 0.00 0.00 0.00 65 1009.5
20260904204322 92 217 4.0 12.0 0.00 0.00 0.00 65 1009.5
20260904203821 92 219 4.0 12.0 0.00 0.00 0.00 65 1009.5
20260904203316 92 192 4.0 10.0 0.00 0.00 0.00 65 1009.5
20260904202810 92 209 4.0 10.0 0.00 0.00 0.00 66 1009.7
20260904202306 92 182 4.0 7.0 0.00 0.00 0.00 65 1009.7
20260904201755 92 186 3.0 7.0 0.00 0.00 0.00 66 1009.7
20260904201250 92 188 3.0 9.0 0.00 0.00 0.00 66 1009.8
20260904201226 92 234 2.0 9.0 0.00 0.00 0.00 65 1009.8
20260904200507 92 227 3.0 10.0 0.00 0.00 0.00 66 1009.8
20260904195733 92 152 2.0 10.0 0.00 0.00 0.00 66 1010.0
20260904195222 92 217 2.0 9.0 0.00 0.00 0.00 65 1010.0
20260904194720 92 181 1.0 9.0 0.00 0.00 0.00 65 1010.0
20260904194216 92 246 1.0 8.0 0.00 0.00 0.00 65 1010.3
20260904193710 92 233 1.0 6.0 0.00 0.00 0.00 65 1010.3
20260904193203 91 146 0.0 3.0 0.00 0.00 0.00 65 1010.3
20260904192652 91 172 1.0 7.0 0.00 0.00 0.00 66 1010.5
20260904192417 90 155 2.0 8.0 0.00 0.00 0.00 66 1010.5
20260904191645 90 111 2.0 8.0 0.00 0.00 0.00 65 1010.5
20260904191138 90 165 2.0 8.0 0.00 0.00 0.00 68 1010.8
20260904190632 89 109 1.0 8.0 0.00 0.00 0.00 68 1010.8
20260904190126 89 204 3.0 9.0 0.00 0.00 0.00 69 1010.8
20260904185620 89 92 2.0 9.0 0.00 0.00 0.00 68 1011.0
20260904185331 88 162 1.0 6.0 0.00 0.00 0.00 70 1011.0
20260904184609 88 116 2.0 10.0 0.00 0.00 0.00 70 1011.0
20260904184104 87 90 4.0 11.0 0.00 0.00 0.00 70 1011.4
20260904183557 87 106 4.0 11.0 0.00 0.00 0.00 71 1011.4
20260904183051 86 106 4.0 9.0 0.00 0.00 0.00 73 1011.4
20260904182541 86 92 4.0 11.0 0.00 0.00 0.00 72 1011.6
20260904182039 86 342 4.0 11.0 0.00 0.00 0.00 72 1011.6
20260904181757 86 77 4.0 12.0 0.00 0.00 0.00 75 1011.6
20260904181026 86 136 5.0 12.0 0.00 0.00 0.00 73 1011.9
20260904180519 86 86 5.0 10.0 0.00 0.00 0.00 74 1011.9
20260904180500 85 150 4.0 10.0 0.00 0.00 0.00 74 1011.9
20260904175510 85 97 3.0 10.0 0.00 0.00 0.00 76 1012.4
20260904174958 84 141 4.0 12.0 0.00 0.00 0.00 78 1012.4
20260904174455 84 79 6.0 13.0 0.00 0.00 0.00 78 1012.4
20260904173950 84 80 6.0 13.0 0.00 0.00 0.00 77 1012.4
20260904173444 84 52 6.0 13.0 0.00 0.00 0.00 78 1012.4
20260904172939 84 333 6.0 15.0 0.00 0.00 0.00 77 1012.4
20260904172429 85 22 7.0 15.0 0.00 0.00 0.00 76 1012.4
20260904172150 85 67 7.0 15.0 0.00 0.00 0.00 75 1012.4
20260904171409 85 15 6.0 16.0 0.00 0.00 0.00 74 1012.7
20260904170904 85 39 6.0 16.0 0.00 0.00 0.00 74 1012.7
20260904170405 85 32 7.0 15.0 0.00 0.00 0.00 74 1012.7
20260904165904 86 91 6.0 14.0 0.00 0.00 0.00 73 1012.5
20260904165401 86 63 6.0 13.0 0.00 0.00 0.00 75 1012.5
20260904165344 86 22 7.0 14.0 0.00 0.00 0.00 74 1012.5
20260904164401 86 67 6.0 14.0 0.00 0.00 0.00 73 1012.4
20260904163903 86 82 6.0 12.0 0.00 0.00 0.00 73 1012.4
20260904163404 86 55 6.0 13.0 0.00 0.00 0.00 73 1012.4
20260904163123 87 43 5.0 13.0 0.00 0.00 0.00 73 1012.2
20260904162400 87 35 4.0 10.0 0.00 0.00 0.00 72 1012.2
20260904161856 87 24 5.0 16.0 0.00 0.00 0.00 73 1012.2
20260904161348 87 31 5.0 16.0 0.00 0.00 0.00 71 1011.9
20260904160842 88 41 2.0 10.0 0.00 0.00 0.00 68 1011.9
20260904160336 88 65 2.0 6.0 0.00 0.00 0.00 67 1011.9
20260904155831 88 349 2.0 7.0 0.00 0.00 0.00 67 1011.9
20260904155542 88 311 2.0 7.0 0.00 0.00 0.00 68 1011.9
20260904154820 87 88 2.0 9.0 0.00 0.00 0.00 70 1011.9